#timestamp,LO_Frequency,Hit,StdDev 
1608638675.8,286047015.4,P
1608638695.6,286047015.4,P
1608638715.5,286047014.7,P
1608638735.3,286047015.6,Y
1608638755.1,286046995.4,P
1608638775.9,286046996.0,N
1608638795.7,286046995.5,N
1608638815.6,286046998.0,N
1608638835.4,286046993.5,N
1608638855.2,286046992.4,N
1608638875.1,286046992.4,N
1608638876.0,286046992.4,N
1608638895.8,286046992.5,N
1608638915.7,286046994.2,N
1608638935.5,286046994.6,N
1608638955.3,286046993.3,N
1608638975.2,286046995.6,N
1608638995.9,286046994.0,N
1608639015.7,286046992.2,N
1608639035.6,286046992.8,N
1608639055.4,286046990.7,N
1608639075.3,286046990.3,N
1608639095.1,286046990.6,N
1608639096.0,286046990.6,N
1608639115.8,286046995.6,N
1608639135.7,286047000.3,N
1608639155.5,286047002.4,N
1608639175.3,286047000.6,N
1608639195.2,286046996.5,N
1608639215.0,286046999.4,N
1608639215.9,286046999.4,N
1608639235.8,286047000.6,N
1608639255.6,286046999.6,N
1608639275.4,286046998.1,N
1608639295.3,286046998.3,N
1608639315.1,286047000.6,N
1608639335.9,286046998.8,N
1608639355.7,286046997.1,N
1608639375.5,286046993.3,N
1608639395.4,286046993.5,N
1608639415.2,286046994.6,N
1608639435.0,286046991.9,N
1608639435.9,286046991.9,N
1608639455.8,286046994.4,N
1608639475.6,286046995.9,N
1608639495.4,286046995.2,N
1608639515.3,286046995.7,N
1608639535.1,286046996.0,N
1608639555.9,286046993.7,N
1608639575.7,286046995.5,N
1608639595.5,286046995.8,N
1608639615.4,286046995.3,N
1608639635.2,286046996.0,N
1608639655.0,286046997.6,N
1608639655.9,286046997.6,N
1608639675.8,286046995.2,N
1608639695.6,286046996.1,N
1608639715.5,286046995.5,N
1608639735.3,286046997.9,N
1608639755.1,286046996.2,N
1608639775.9,286046993.4,N
1608639795.7,286046991.7,Y
1608639815.5,286046994.9,P
1608639835.4,286046996.9,P
1608639855.2,286046999.6,N
1608639875.1,286046999.0,N
1608639876.0,286046999.0,N
1608639895.8,286046997.0,N
1608639915.6,286047001.2,N
1608639935.5,286047000.2,N
1608639955.3,286047000.3,N
1608639975.1,286047001.9,N
1608639995.9,286047004.0,N
1608640015.7,286047002.5,N
1608640035.6,286047002.0,N
1608640055.4,286047002.6,N
1608640075.2,286047002.8,N
1608640095.1,286047001.9,N
1608640096.0,286047001.9,N
1608640115.8,286047003.2,N
1608640135.6,286047004.4,N
1608640155.5,286047003.7,N
1608640175.3,286047004.6,N
1608640195.2,286047007.1,N
1608640215.9,286047006.1,N
1608640235.7,286047008.5,N
1608640255.6,286047007.8,N
1608640275.4,286047004.7,N
1608640295.2,286047007.6,N
1608640315.1,286047007.3,N
1608640316.0,286047007.3,N
1608640335.8,286047006.9,N
1608640355.7,286047008.2,N
1608640375.5,286047008.0,N
1608640395.3,286047009.0,N
1608640415.2,286047008.7,N
1608640435.0,286047004.5,N
1608640435.9,286047004.5,N
1608640455.7,286047003.4,N
1608640475.6,286047005.5,N
1608640495.4,286047005.6,N
1608640515.3,286047003.4,N
1608640535.1,286047005.7,N
1608640536.0,286047005.7,N
1608640555.8,286047005.4,N
1608640575.7,286047006.5,Y
1608640595.5,286047001.6,P
1608640615.3,286047002.5,N
1608640635.2,286047004.3,N
1608640655.0,286047005.7,Y
1608640655.9,286047005.7,P
1608640675.8,286047003.8,P
1608640695.6,286047002.7,N
1608640715.4,286047000.9,N
1608640735.3,286047001.0,N
1608640755.1,286046998.6,N
1608640775.9,286046997.7,N
1608640795.7,286047000.6,N
1608640815.5,286046998.3,N
1608640835.4,286046997.4,N
1608640855.2,286046995.1,N
1608640875.0,286046993.5,N
1608640875.9,286046993.5,N
1608640895.8,286046995.9,N
1608640915.6,286046994.1,N
1608640935.5,286046994.8,N
1608640955.3,286046994.6,N
1608640975.1,286046994.8,N
1608640995.9,286046994.3,N
1608641015.7,286046992.1,N
1608641035.5,286046994.8,N
1608641055.4,286046992.1,N
1608641075.2,286046993.9,N
1608641095.0,286046995.7,N
1608641096.0,286046995.7,N
1608641115.8,286046995.6,N
1608641135.6,286046995.8,N
1608641155.5,286046995.1,N
1608641175.3,286046998.0,N
1608641195.1,286046996.1,N
1608641215.9,286046995.9,N
1608641235.7,286046995.3,N
1608641255.5,286046997.4,N
1608641275.4,286046995.2,N
1608641295.2,286046997.5,N
1608641315.1,286046997.9,N
1608641316.0,286046997.9,N
1608641335.8,286046997.7,N
1608641355.6,286046997.1,N
1608641375.5,286046996.1,N
1608641395